Theta_e
309 309 308 308 309 309 308 309 308 308 309 308 308 309 310 307 307 309 311 310 310 315 314 311 307 313 318 324 323 323 327 327 326 324 325 324 325 326 326 329 333 335 334 332 332
308 307 308 309 310 310 310 310 309 308 308 307 308 309 307 305 307 311 310 310 309 308 310 309 310 315 317 321 324 324 323 321 321 322 324 324 324 325 325 326 331 335 332 331 331
304 308 308 307 307 308 309 310 310 308 309 309 309 308 304 306 307 310 307 307 305 309 308 308 310 316 315 318 322 323 322 319 321 323 323 324 324 323 324 326 327 330 335 332 332
307 307 303 307 308 309 309 309 309 309 308 309 309 306 304 307 307 306 305 304 306 309 307 306 309 312 314 317 319 323 322 321 322 322 321 322 321 321 322 325 324 323 331 333 333
307 303 302 306 308 309 309 308 308 310 309 308 308 305 307 306 306 305 303 304 305 307 309 306 309 311 312 314 316 320 321 321 322 324 324 323 322 324 324 323 323 323 327 332 333
306 301 301 303 305 307 308 308 308 308 308 306 307 305 306 306 303 304 304 304 304 304 306 308 309 310 313 314 316 315 318 320 322 323 323 324 325 324 323 323 324 324 325 327 332
305 300 301 301 301 301 302 304 307 307 306 306 306 307 306 306 304 305 305 305 305 304 305 306 309 309 308 309 311 312 315 316 317 318 321 321 323 323 323 323 324 325 325 326 328
303 301 301 301 301 301 303 304 304 305 306 305 304 306 307 304 306 307 306 306 306 305 305 306 308 310 309 309 307 308 310 311 309 311 315 318 320 318 320 321 322 324 325 324 327
304 301 301 301 300 302 302 304 304 303 302 304 307 307 309 306 307 307 306 307 306 305 305 306 307 309 309 308 309 308 307 310 310 309 312 318 318 316 316 318 321 322 322 324 324
305 301 301 300 302 303 303 305 305 307 307 307 307 310 307 307 307 306 306 306 307 307 307 307 309 310 311 312 316 313 311 309 308 310 313 313 313 314 316 318 319 319 320 322 324
305 301 301 300 302 304 307 307 307 309 305 305 305 306 307 306 306 306 306 307 308 309 311 308 311 314 312 311 311 310 308 309 309 307 307 307 308 310 314 315 317 319 319 321 321
305 300 301 301 303 304 306 305 304 303 306 304 304 304 304 305 307 307 307 309 309 310 309 310 312 310 309 309 309 310 311 312 311 309 308 308 308 308 308 309 315 318 319 319 322
304 300 301 300 303 305 305 305 304 304 307 306 305 307 307 307 308 309 308 309 310 310 310 310 311 309 309 309 310 310 311 312 312 310 309 309 309 309 309 308 308 310 313 317 319
303 301 301 299 303 304 306 305 304 304 312 306 308 309 308 307 309 307 307 308 309 312 311 311 310 310 310 311 310 312 310 309 309 310 313 309 312 310 310 309 309 309 309 311 314
303 301 300 299 303 303 305 303 304 306 320 305 306 306 305 306 307 310 307 307 311 312 310 312 312 311 311 311 309 311 309 309 309 311 310 311 311 310 309 308 309 309 309 309 309
303 301 300 302 302 302 303 304 305 312 318 306 304 305 307 307 308 309 310 307 308 310 310 311 310 310 311 310 309 309 309 309 310 310 314 311 311 311 311 310 310 309 309 309 310
303 301 301 300 303 302 302 305 312 320 304 308 306 305 307 309 309 310 311 312 313 315 315 312 313 310 309 310 310 310 312 315 315 314 313 308 310 310 309 309 309 308 308 308 308
303 301 300 300 301 302 303 306 317 300 305 303 305 305 308 307 308 308 310 313 312 311 313 314 315 312 310 310 312 312 311 315 317 315 313 309 309 309 308 310 308 308 308 308 308
302 300 303 301 302 302 304 315 315 308 304 306 306 307 308 307 306 307 309 311 311 310 314 313 315 310 310 310 311 313 314 311 314 312 312 309 308 308 312 311 310 310 310 312 311
302 302 303 301 302 303 304 307 305 302 304 305 307 305 308 307 308 308 308 310 311 308 308 309 312 309 310 308 309 311 310 312 312 312 311 309 308 309 313 311 310 311 310 311 312
301 304 301 300 301 304 307 309 301 301 304 306 308 306 306 306 304 307 308 310 309 307 306 308 310 313 309 310 312 311 311 310 310 311 312 310 310 310 309 308 308 308 307 308 309
301 303 299 300 302 297 308 300 300 304 303 304 305 305 305 305 305 307 308 307 306 305 306 308 310 311 315 310 309 309 310 310 313 312 311 312 309 306 305 305 306 305 305 305 306
300 302 299 300 307 307 300 301 302 304 305 304 305 305 305 306 306 306 307 306 304 303 309 309 311 313 317 312 309 311 310 309 309 311 312 313 313 305 304 303 303 303 303 304 304
302 303 301 301 300 302 301 302 303 302 304 304 304 304 305 306 305 305 305 304 303 304 305 306 308 313 315 312 309 309 309 309 312 313 311 314 314 307 304 303 301 300 300 302 303
300 300 297 303 301 301 300 301 302 305 303 303 304 304 305 305 302 304 304 303 302 305 303 308 311 312 311 311 311 310 308 308 309 312 313 309 307 306 303 301 300 299 300 300 298
299 300 294 297 299 301 300 303 302 301 303 303 304 304 304 305 304 305 303 302 301 302 302 304 310 309 311 310 310 311 309 307 306 307 312 308 307 303 302 301 300 299 299 299 298
295 293 302 299 301 302 304 302 301 301 302 302 303 303 303 303 302 302 302 302 301 301 301 303 306 309 316 311 312 313 309 309 308 307 308 309 306 305 304 302 300 300 300 298 297
Wind_Speed
9 9 10 12 12 11 11 11 11 11 11 12 13 14 14 15 15 3 7 10 17 19 10 12 8 7 10 13 13 10 12 15 20 18 13 10 6 5 3 9 3 2 4 5 22
8 11 12 13 13 13 12 11 11 10 11 11 13 14 14 15 7 5 6 13 15 12 7 6 4 3 10 13 10 11 13 17 16 12 9 13 9 9 6 7 8 7 0 5 22
10 11 11 13 13 14 13 11 12 10 10 11 12 13 15 13 3 4 12 13 12 11 8 6 6 6 10 11 17 14 18 15 8 10 9 12 13 10 10 9 4 10 5 12 20
10 11 13 13 14 14 12 10 9 9 9 10 12 15 14 5 4 6 12 12 12 9 8 5 3 4 6 12 14 19 16 19 18 11 9 11 13 14 14 12 4 7 5 11 16
10 12 12 12 12 13 11 7 7 7 8 9 11 14 7 4 5 5 11 14 8 6 10 7 2 2 7 6 12 16 19 15 12 8 12 14 18 15 15 14 7 2 2 9 14
10 11 12 13 13 12 10 8 6 5 7 7 8 11 7 5 4 6 11 12 9 9 9 10 6 5 5 5 7 6 11 16 9 10 14 15 17 19 16 16 17 8 7 8 13
9 10 12 13 12 12 10 9 7 5 5 5 6 7 5 4 6 10 11 9 8 8 6 5 6 6 3 4 3 9 11 13 17 18 16 13 24 25 22 20 18 15 12 9 11
9 9 10 12 13 13 10 11 9 4 4 4 4 4 3 3 6 7 6 5 4 3 2 5 4 4 4 4 4 5 7 10 10 19 19 19 22 15 21 22 22 22 19 17 12
8 8 10 12 15 13 10 9 6 2 3 2 1 3 3 5 3 5 4 4 4 3 1 2 4 3 2 4 5 6 7 10 10 10 11 18 11 11 19 16 15 17 19 20 18
7 8 8 11 13 9 11 4 4 4 2 1 2 3 2 4 5 6 3 5 4 3 2 1 2 5 4 6 2 5 7 7 8 3 7 16 20 18 16 13 15 17 19 19 19
6 7 8 10 10 11 6 2 2 4 6 5 8 5 4 9 10 4 4 4 3 3 3 2 4 6 5 6 11 10 10 13 13 7 13 13 16 19 17 19 17 19 19 17 20
5 6 7 10 6 9 8 5 4 3 2 2 4 3 5 5 4 1 1 2 3 5 1 3 7 6 8 7 9 11 13 14 14 12 12 16 22 20 22 19 18 18 19 19 17
6 7 7 9 3 7 11 7 2 1 2 1 2 3 4 5 7 3 2 2 2 3 6 7 7 6 6 6 7 9 12 13 13 13 15 17 20 19 21 26 22 22 22 21 19
5 6 8 7 2 1 2 1 1 2 1 6 2 3 1 5 3 3 3 2 2 5 6 7 4 6 8 11 9 10 5 8 9 7 5 6 9 15 12 13 19 23 23 24 25
5 5 5 5 1 1 1 2 1 3 1 7 3 2 5 4 9 2 1 1 5 6 2 4 6 8 10 6 2 4 6 8 9 10 11 12 7 8 8 14 18 16 19 21 22
5 3 4 4 2 0 1 2 1 1 2 2 4 6 8 1 1 2 3 2 3 4 5 16 11 8 7 7 6 7 7 9 8 5 7 13 13 16 18 18 19 17 17 16 18
5 3 2 2 2 1 3 3 1 3 1 4 4 8 7 4 4 1 5 5 3 5 2 12 6 4 5 5 6 6 1 3 3 5 6 4 10 22 18 22 20 20 20 18 16
6 3 3 2 2 1 2 2 2 1 1 2 4 9 3 8 2 7 4 4 5 2 4 6 3 4 6 5 5 7 6 3 5 3 7 5 8 10 10 14 14 14 16 18 21
6 1 0 2 1 2 1 1 1 3 3 4 6 3 3 5 6 6 6 4 1 3 5 5 5 2 4 7 1 2 6 6 5 9 8 9 18 18 9 10 10 13 15 16 15
5 3 1 1 0 3 3 1 1 1 2 1 3 1 4 7 7 9 4 3 2 3 4 3 8 1 3 5 0 4 4 2 4 4 6 7 13 8 14 16 19 14 11 12 12
5 2 1 3 2 1 0 1 2 3 2 2 2 3 4 5 6 5 4 2 1 6 8 2 5 2 1 5 3 3 3 6 5 5 4 6 3 5 10 12 12 11 10 10 11
5 1 1 5 2 0 1 3 3 4 3 1 4 4 3 4 4 3 3 4 8 10 8 2 4 5 2 0 4 8 10 10 4 3 4 3 6 5 8 9 9 8 9 9 9
4 2 1 1 2 2 1 1 1 4 5 5 4 6 4 3 4 3 5 3 9 11 3 4 3 6 3 1 2 3 6 12 12 4 11 4 4 4 7 9 10 10 10 11 8
4 3 1 1 1 3 2 4 3 5 4 4 4 6 6 5 5 5 4 5 10 5 6 4 4 5 7 3 5 4 8 8 8 6 6 6 12 10 12 13 14 13 12 9 10
1 3 2 4 5 8 5 5 4 4 6 6 4 12 5 3 3 4 5 9 5 3 9 4 4 3 9 4 4 6 12 11 10 15 3 7 6 10 11 11 10 9 8 11 16
5 4 2 3 3 12 6 5 7 4 8 6 8 5 10 7 6 5 4 3 4 3 7 5 4 5 4 7 4 5 13 14 7 9 4 7 4 6 8 8 8 10 12 11 15
5 2 2 6 6 6 5 6 9 7 9 3 7 7 10 13 11 9 9 10 11 9 4 4 5 4 2 4 4 3 9 10 5 9 5 4 2 5 5 9 11 12 11 12 14
Wind_Direction
1 354 346 338 344 344 334 331 327 324 335 342 343 341 334 338 347 21 32 350 340 338 287 304 276 252 231 237 238 244 246 239 240 237 240 242 243 218 354 285 263 233 327 25 153
350 353 356 342 334 327 321 319 324 324 327 339 340 335 332 338 343 56 358 344 344 349 332 333 252 241 216 217 208 221 223 240 255 264 237 249 234 280 304 254 227 227 56 150 159
358 0 343 341 339 337 322 312 306 322 330 331 330 331 331 331 261 69 337 340 354 359 334 314 283 265 223 225 217 218 241 241 243 307 272 269 263 270 255 258 299 337 153 161 176
2 352 352 356 349 342 329 317 302 302 321 333 329 333 333 314 341 6 12 351 355 350 346 327 251 222 238 225 226 237 235 246 270 238 240 252 262 261 253 250 89 15 5 183 191
355 354 2 2 359 354 354 336 307 315 317 325 332 341 353 293 45 6 15 8 2 2 12 360 328 283 242 293 248 243 246 254 255 252 275 269 262 263 261 258 217 8 225 208 211
356 1 7 6 2 360 3 354 341 331 323 334 333 350 344 334 352 332 330 339 352 2 8 11 360 330 309 265 261 349 287 271 252 267 257 252 257 248 247 246 253 209 230 219 211
5 6 8 3 1 355 356 352 349 339 323 329 333 335 296 11 341 327 321 317 322 321 329 3 339 301 348 252 320 280 278 267 252 246 241 247 257 247 251 253 253 242 218 220 218
7 7 6 359 352 340 344 341 324 318 314 315 344 327 353 338 344 356 11 41 23 359 295 335 307 296 269 330 256 268 242 254 247 234 236 229 255 262 229 235 240 241 241 232 216
8 1 360 355 344 336 343 340 326 296 299 293 347 358 63 337 12 3 9 24 11 41 75 323 282 297 247 248 260 210 269 236 276 259 235 213 263 250 250 245 248 248 247 238 228
357 348 354 350 346 346 339 360 22 55 347 160 114 243 65 2 338 325 324 330 324 308 195 281 250 260 224 217 239 299 231 249 262 37 290 263 261 264 264 252 259 253 251 253 243
339 333 337 352 355 347 357 330 267 185 35 12 327 295 296 313 292 285 303 288 285 278 318 22 277 246 281 272 280 286 272 274 273 272 301 272 272 272 265 254 249 256 258 250 243
320 321 332 347 3 9 24 59 49 1 344 33 336 305 313 324 296 251 217 294 318 327 16 264 276 323 291 263 270 268 269 274 281 275 269 284 280 270 264 257 253 244 258 254 246
306 320 329 344 7 33 66 70 72 303 282 63 6 333 3 322 326 343 235 3 323 293 244 262 300 281 307 270 266 262 264 272 275 305 285 279 282 264 250 247 249 248 248 252 255
291 318 327 351 114 6 66 95 326 302 39 2 21 95 249 292 270 313 287 321 232 302 325 283 279 283 280 262 269 292 323 292 281 287 280 34 291 295 297 272 239 236 239 246 245
271 304 339 24 334 246 133 334 347 241 20 4 323 309 288 295 326 109 305 109 271 301 306 313 295 288 285 283 181 260 326 295 288 278 297 254 263 273 256 266 265 255 239 241 253
255 288 347 339 12 214 20 312 211 267 52 343 303 333 348 205 290 302 236 224 301 293 242 261 277 297 246 298 265 277 316 273 272 267 249 240 221 271 258 268 267 268 278 275 251
231 256 311 334 308 293 332 246 14 54 145 9 330 329 330 304 323 281 303 272 308 311 5 302 266 212 241 282 266 251 260 281 223 202 252 281 218 248 298 295 291 295 283 275 283
213 233 269 215 231 332 293 310 70 174 273 23 297 318 304 353 327 319 307 320 66 341 301 338 327 191 150 229 300 198 202 255 288 286 295 287 241 247 296 332 301 290 288 292 273
188 175 52 301 217 355 300 33 95 172 130 355 315 312 339 332 325 324 329 342 53 18 344 323 255 191 223 296 45 59 210 289 283 257 272 249 269 270 40 360 342 327 308 300 283
171 158 165 265 212 292 73 204 171 188 123 84 314 327 325 338 334 353 326 77 332 340 100 300 289 337 6 21 291 220 338 184 198 274 275 275 288 298 343 328 323 315 300 311 318
161 204 256 156 41 55 235 131 225 199 144 111 293 298 289 339 325 320 312 151 244 357 326 225 235 317 169 203 203 165 207 236 291 264 291 310 288 351 323 334 326 318 320 344 338
155 209 300 153 68 74 178 202 116 168 178 229 267 266 283 311 292 299 297 307 357 350 317 348 304 283 271 351 280 269 253 219 240 224 222 269 285 348 354 318 313 317 335 357 359
131 130 8 301 176 213 171 236 199 188 203 163 250 218 234 274 301 230 277 304 323 335 350 359 258 295 173 182 146 259 269 255 255 252 244 264 289 16 353 344 337 344 352 11 357
135 156 123 260 184 187 215 165 203 186 235 200 273 259 262 273 256 282 296 306 328 343 353 288 263 268 308 345 314 350 342 319 257 244 269 277 306 11 6 348 344 349 345 342 24
101 219 169 178 226 217 186 147 192 172 221 203 256 238 231 272 289 234 269 303 302 110 334 354 273 313 301 262 265 4 3 354 341 235 231 22 17 354 351 339 331 325 338 16 28
143 160 190 138 174 183 203 186 206 188 185 203 226 256 228 240 230 305 287 313 291 319 341 344 282 309 238 212 285 322 4 353 8 6 116 82 35 347 335 329 341 355 4 7 19
149 169 165 155 165 177 216 188 188 181 216 225 223 250 245 259 286 300 298 278 271 292 308 295 321 303 316 346 312 253 354 344 356 26 351 51 336 315 350 7 11 1 7 13 20